ETH764 HAAB-HECA

Flight info

Callsign ETH764
Flight time 3h 36m
Altitude 38000
Route LABLA1B LABLA UT124 ALRAP/N0462F370 DCT KSL DCT PSD/N0464F380 P751 AST W8 CVO
Aircraft B38M/M-SDE1FGHILORVWXY/HB1

Departure

Time 2026-04-29 22:49
Airport Addis Ababa Bole International Airport (HAAB)

Arrival

Time 2026-04-30 02:25
Airport Cairo International Airport (HECA)
Time Latitude Longitude Altitude Speed Heading
2026-04-29 22:21 8.98312 38.79911 7623 ft 0 kts 343°
2026-04-29 22:36 8.98296 38.79916 7654 ft 4 kts 349°
2026-04-29 22:37 8.98269 38.79917 7627 ft 4 kts
2026-04-29 22:37 8.98246 38.79909 7630 ft 4 kts 47°
2026-04-29 22:37 8.98239 38.79898 7630 ft 2 kts 73°
2026-04-29 22:40 8.98240 38.79900 7630 ft 1 kts 73°
2026-04-29 22:41 8.98246 38.79920 7630 ft 7 kts 73°
2026-04-29 22:41 8.98267 38.79993 7627 ft 15 kts 73°
2026-04-29 22:41 8.98292 38.80077 7627 ft 16 kts 73°
2026-04-29 22:41 8.98289 38.80198 7627 ft 12 kts 130°
2026-04-29 22:42 8.98245 38.80192 7627 ft 4 kts 249°
2026-04-29 22:42 8.98250 38.80170 7627 ft 4 kts 283°
2026-04-29 22:42 8.98232 38.80123 7627 ft 11 kts 207°
2026-04-29 22:42 8.98136 38.80137 7627 ft 18 kts 160°
2026-04-29 22:43 8.97998 38.80181 7629 ft 23 kts 133°
2026-04-29 22:43 8.98035 38.80327 7629 ft 19 kts 17°
2026-04-29 22:43 8.98167 38.80335 7627 ft 19 kts 52°
2026-04-29 22:43 8.98185 38.80416 7628 ft 15 kts 74°
2026-04-29 22:44 8.98219 38.80543 7628 ft 23 kts 74°
2026-04-29 22:44 8.98272 38.80721 7628 ft 30 kts 73°
2026-04-29 22:44 8.98337 38.80944 7629 ft 36 kts 73°
2026-04-29 22:44 8.98396 38.81141 7629 ft 16 kts 73°
2026-04-29 22:45 8.98387 38.81203 7629 ft 8 kts 148°
2026-04-29 22:45 8.98334 38.81223 7629 ft 8 kts 161°
2026-04-29 22:45 8.98292 38.81255 7628 ft 7 kts 114°
2026-04-29 22:45 8.98280 38.81300 7628 ft 4 kts 109°
2026-04-29 22:46 8.98260 38.81321 7628 ft 0 kts 154°
2026-04-29 22:46 8.98231 38.81335 7628 ft 9 kts 154°
2026-04-29 22:46 8.98188 38.81334 7627 ft 2 kts 234°
2026-04-29 22:47 8.98188 38.81332 7627 ft 0 kts 268°
2026-04-29 22:47 8.98189 38.81330 7627 ft 1 kts 279°
2026-04-29 22:47 8.98163 38.81281 7627 ft 14 kts 224°
2026-04-29 22:47 8.98076 38.81186 7627 ft 23 kts 235°
2026-04-29 22:48 8.97998 38.80955 7626 ft 59 kts 253°
2026-04-29 22:48 8.97817 38.80348 7632 ft 118 kts 253°
2026-04-29 22:48 8.97532 38.79379 7624 ft 168 kts 253°
2026-04-29 22:48 8.97188 38.78137 7879 ft 187 kts 257°
2026-04-29 22:49 8.96838 38.76799 8220 ft 214 kts 247°
2026-04-29 22:49 8.95889 38.75654 8899 ft 214 kts 209°
2026-04-29 22:49 8.94488 38.75265 9587 ft 212 kts 173°
2026-04-29 22:49 8.93118 38.75836 10037 ft 216 kts 133°
2026-04-29 22:50 8.92438 38.77117 10653 ft 209 kts 97°
2026-04-29 22:50 8.92588 38.78569 11172 ft 213 kts 67°
2026-04-29 22:50 8.93470 38.79780 11686 ft 216 kts 41°
2026-04-29 22:50 8.94641 38.80736 12268 ft 219 kts 43°
2026-04-29 22:51 8.95489 38.82016 12768 ft 223 kts 68°
2026-04-29 22:51 8.95809 38.83586 13160 ft 236 kts 85°
2026-04-29 22:51 8.95636 38.87101 13724 ft 265 kts 77°
2026-04-29 22:52 8.96387 38.88825 13999 ft 275 kts 51°
2026-04-29 22:52 8.97868 38.90085 14337 ft 283 kts 27°
2026-04-29 22:52 8.99735 38.90661 14860 ft 284 kts
2026-04-29 22:52 9.01718 38.90422 15344 ft 292 kts 340°
2026-04-29 22:53 9.03456 38.89378 16019 ft 294 kts 320°
2026-04-29 22:53 9.05084 38.88080 16502 ft 302 kts 326°
2026-04-29 22:53 9.06819 38.86820 16925 ft 314 kts 325°
2026-04-29 22:53 9.08639 38.85484 17212 ft 330 kts 324°
2026-04-29 22:54 9.10543 38.84081 17438 ft 346 kts 324°
2026-04-29 22:54 9.12493 38.82633 17912 ft 354 kts 324°
2026-04-29 22:54 9.14506 38.81131 18193 ft 363 kts 324°
2026-04-29 22:54 9.16561 38.79591 18494 ft 370 kts 324°
2026-04-29 22:55 9.18629 38.78033 18782 ft 372 kts 323°
2026-04-29 22:55 9.20714 38.76456 19063 ft 374 kts 323°
2026-04-29 22:55 9.22799 38.74878 19338 ft 376 kts 323°
2026-04-29 22:55 9.24897 38.73289 19626 ft 377 kts 323°
2026-04-29 22:56 9.27002 38.71695 19906 ft 379 kts 323°
2026-04-29 22:56 9.29122 38.70091 20197 ft 380 kts 323°
2026-04-29 22:56 9.30526 38.69029 20385 ft 382 kts 323°
2026-04-29 22:56 9.32656 38.67420 20679 ft 383 kts 323°
2026-04-29 22:57 9.34797 38.65802 20976 ft 385 kts 323°
2026-04-29 22:57 9.37648 38.63648 21369 ft 387 kts 323°
2026-04-29 22:57 9.39809 38.62017 21676 ft 389 kts 323°
2026-04-29 22:57 9.41275 38.60912 21876 ft 390 kts 323°
2026-04-29 22:58 9.44167 38.58732 22294 ft 392 kts 323°
2026-04-29 22:58 9.46359 38.57081 22607 ft 394 kts 323°
2026-04-29 22:58 9.47846 38.55963 22822 ft 395 kts 323°
2026-04-29 22:58 9.50056 38.54302 23148 ft 396 kts 323°
2026-04-29 22:59 9.52277 38.52635 23469 ft 398 kts 323°
2026-04-29 22:59 9.54506 38.50964 23797 ft 400 kts 323°
2026-04-29 22:59 9.56718 38.49306 24073 ft 402 kts 323°
2026-04-29 22:59 9.58965 38.47620 24350 ft 403 kts 323°
2026-04-29 23:00 9.61223 38.45924 24623 ft 405 kts 323°
2026-04-29 23:00 9.63492 38.44218 24908 ft 407 kts 323°
2026-04-29 23:00 9.65769 38.42504 25190 ft 409 kts 323°
2026-04-29 23:00 9.68054 38.40780 25477 ft 410 kts 323°
2026-04-29 23:01 9.70350 38.39045 25771 ft 412 kts 323°
2026-04-29 23:01 9.72655 38.37303 26070 ft 414 kts 323°
2026-04-29 23:01 9.74965 38.35555 26369 ft 416 kts 323°
2026-04-29 23:01 9.77294 38.33790 26684 ft 418 kts 323°
2026-04-29 23:02 9.79627 38.32020 26976 ft 420 kts 323°
2026-04-29 23:02 9.81971 38.30239 27286 ft 423 kts 323°
2026-04-29 23:02 9.84332 38.28443 27603 ft 425 kts 323°
2026-04-29 23:02 9.86702 38.26640 27925 ft 427 kts 323°
2026-04-29 23:03 9.89080 38.24831 28250 ft 429 kts 323°
2026-04-29 23:03 9.91470 38.23012 28579 ft 430 kts 323°
2026-04-29 23:03 9.93866 38.21189 28913 ft 432 kts 323°
2026-04-29 23:03 9.96276 38.19355 29248 ft 433 kts 323°
2026-04-29 23:04 9.98689 38.17518 29572 ft 434 kts 323°
2026-04-29 23:04 10.01107 38.15677 29907 ft 435 kts 323°
2026-04-29 23:04 10.03532 38.13830 30229 ft 436 kts 323°
2026-04-29 23:04 10.05959 38.11978 30516 ft 437 kts 323°
2026-04-29 23:05 10.08396 38.10119 30799 ft 438 kts 323°
2026-04-29 23:05 10.10835 38.08256 31070 ft 439 kts 323°
2026-04-29 23:05 10.13277 38.06389 31352 ft 440 kts 323°
2026-04-29 23:05 10.15721 38.04519 31637 ft 441 kts 323°
2026-04-29 23:06 10.18172 38.02644 31916 ft 442 kts 323°
2026-04-29 23:06 10.20629 38.00764 32189 ft 442 kts 323°
2026-04-29 23:06 10.23085 37.98886 32466 ft 443 kts 323°
2026-04-29 23:06 10.25549 37.97001 32743 ft 444 kts 323°
2026-04-29 23:07 10.28017 37.95113 33011 ft 444 kts 323°
2026-04-29 23:07 10.30456 37.93249 33269 ft 445 kts 323°
2026-04-29 23:07 10.32932 37.91359 33538 ft 446 kts 324°
2026-04-29 23:07 10.35412 37.89464 33804 ft 446 kts 323°
2026-04-29 23:08 10.37893 37.87569 34061 ft 447 kts 323°
2026-04-29 23:08 10.40376 37.85671 34284 ft 448 kts 323°
2026-04-29 23:08 10.42873 37.83765 34496 ft 449 kts 324°
2026-04-29 23:08 10.45370 37.81861 34706 ft 449 kts 324°
2026-04-29 23:09 10.47875 37.79951 34914 ft 450 kts 324°
2026-04-29 23:09 10.50378 37.78045 35112 ft 451 kts 323°
2026-04-29 23:09 10.52889 37.76134 35313 ft 451 kts 323°
2026-04-29 23:09 10.55406 37.74218 35508 ft 452 kts 324°
2026-04-29 23:10 10.57924 37.72303 35704 ft 452 kts 324°
2026-04-29 23:10 10.60446 37.70383 35885 ft 453 kts 324°
2026-04-29 23:10 10.62965 37.68467 36070 ft 454 kts 324°
2026-04-29 23:10 10.65496 37.66543 36245 ft 454 kts 324°
2026-04-29 23:11 10.68030 37.64619 36426 ft 455 kts 324°
2026-04-29 23:11 10.70564 37.62696 36582 ft 455 kts 324°
2026-04-29 23:11 10.73098 37.60770 36769 ft 456 kts 324°
2026-04-29 23:11 10.75639 37.58839 36927 ft 456 kts 324°
2026-04-29 23:12 10.78179 37.56910 37084 ft 456 kts 324°
2026-04-29 23:12 10.80719 37.54982 37234 ft 455 kts 324°
2026-04-29 23:12 10.83256 37.53058 37372 ft 455 kts 324°
2026-04-29 23:12 10.85791 37.51137 37508 ft 454 kts 324°
2026-04-29 23:13 10.88328 37.49215 37620 ft 454 kts 324°
2026-04-29 23:13 10.90863 37.47298 37751 ft 454 kts 324°
2026-04-29 23:13 10.93394 37.45385 37856 ft 454 kts 324°
2026-04-29 23:13 10.95930 37.43469 37963 ft 454 kts 324°
2026-04-29 23:14 10.98464 37.41555 38078 ft 454 kts 324°
2026-04-29 23:14 11.00996 37.39642 38183 ft 454 kts 324°
2026-04-29 23:14 11.06073 37.35815 38371 ft 454 kts 324°
2026-04-29 23:15 11.11153 37.31981 38535 ft 455 kts 324°
2026-04-29 23:15 11.16241 37.28147 38688 ft 455 kts 324°
2026-04-29 23:16 11.21333 37.24308 38816 ft 456 kts 324°
2026-04-29 23:16 11.26429 37.20464 38923 ft 456 kts 324°
2026-04-29 23:17 11.31529 37.16621 39046 ft 456 kts 324°
2026-04-29 23:17 11.36636 37.12780 39154 ft 456 kts 324°
2026-04-29 23:18 11.41739 37.08945 39260 ft 456 kts 324°
2026-04-29 23:18 11.46851 37.05104 39355 ft 456 kts 324°
2026-04-29 23:19 11.51955 37.01269 39443 ft 456 kts 324°
2026-04-29 23:19 11.57031 36.97454 39527 ft 456 kts 324°
2026-04-29 23:20 11.62140 36.93620 39603 ft 456 kts 324°
2026-04-29 23:20 11.67252 36.89789 39693 ft 456 kts 324°
2026-04-29 23:21 11.72362 36.85962 39761 ft 456 kts 324°
2026-04-29 23:21 11.77471 36.82135 39829 ft 456 kts 324°
2026-04-29 23:22 11.82581 36.78309 39891 ft 455 kts 324°
2026-04-29 23:22 11.87693 36.74485 39949 ft 455 kts 324°
2026-04-29 23:23 11.92810 36.70665 39992 ft 456 kts 324°
2026-04-29 23:23 11.97930 36.66846 40027 ft 456 kts 324°
2026-04-29 23:24 12.03048 36.63032 40059 ft 456 kts 324°
2026-04-29 23:24 12.08170 36.59217 40084 ft 456 kts 324°
2026-04-29 23:25 12.13301 36.55396 40114 ft 456 kts 324°
2026-04-29 23:25 12.18430 36.51581 40131 ft 456 kts 324°
2026-04-29 23:26 12.23562 36.47765 40158 ft 456 kts 324°
2026-04-29 23:26 12.28700 36.43952 40181 ft 456 kts 324°
2026-04-29 23:27 12.33841 36.40137 40190 ft 456 kts 324°
2026-04-29 23:27 12.38949 36.36353 40214 ft 457 kts 324°
2026-04-29 23:28 12.44095 36.32543 40231 ft 457 kts 324°
2026-04-29 23:28 12.49276 36.28712 40253 ft 457 kts 324°
2026-04-29 23:29 12.54430 36.24905 40269 ft 457 kts 324°
2026-04-29 23:29 12.59582 36.21106 40287 ft 457 kts 324°
2026-04-29 23:30 12.64699 36.17332 40302 ft 457 kts 324°
2026-04-29 23:30 12.69855 36.13530 40320 ft 457 kts 324°
2026-04-29 23:31 12.75017 36.09731 40330 ft 457 kts 324°
2026-04-29 23:31 12.80180 36.05941 40340 ft 457 kts 324°
2026-04-29 23:32 12.85346 36.02155 40355 ft 457 kts 324°
2026-04-29 23:32 12.90515 35.98368 40358 ft 457 kts 324°
2026-04-29 23:33 12.95705 35.94573 40074 ft 463 kts 324°
2026-04-29 23:33 12.98335 35.92671 39714 ft 460 kts 327°
2026-04-29 23:33 13.01153 35.91203 39378 ft 455 kts 339°
2026-04-29 23:34 13.04201 35.90288 39130 ft 455 kts 351°
2026-04-29 23:34 13.07344 35.90122 38883 ft 453 kts
2026-04-29 23:34 13.10433 35.90730 38654 ft 453 kts 18°
2026-04-29 23:34 13.13306 35.92042 38384 ft 452 kts 33°
2026-04-29 23:35 13.15945 35.93799 38122 ft 453 kts 30°
2026-04-29 23:35 13.18671 35.95418 37902 ft 453 kts 29°
2026-04-29 23:35 13.24161 35.98610 37877 ft 456 kts 29°
2026-04-29 23:36 13.29657 36.01775 37881 ft 456 kts 29°
2026-04-29 23:36 13.35186 36.04961 37880 ft 456 kts 29°
2026-04-29 23:37 13.40754 36.08171 37880 ft 456 kts 29°
2026-04-29 23:37 13.46249 36.11340 37880 ft 456 kts 29°
2026-04-29 23:38 13.51783 36.14533 37880 ft 456 kts 29°
2026-04-29 23:38 13.57309 36.17724 37878 ft 456 kts 29°
2026-04-29 23:39 13.62838 36.20917 37877 ft 456 kts 29°
2026-04-29 23:39 13.65705 36.22290 37848 ft 453 kts 15°
2026-04-29 23:39 13.68793 36.22858 37888 ft 451 kts
2026-04-29 23:40 13.75077 36.23389 37887 ft 455 kts
2026-04-29 23:40 13.81393 36.23818 37876 ft 455 kts
2026-04-29 23:41 13.87715 36.24212 37874 ft 455 kts
2026-04-29 23:41 13.94037 36.24602 37872 ft 456 kts
2026-04-29 23:42 14.00375 36.24994 37875 ft 456 kts
2026-04-29 23:42 14.06704 36.25385 37871 ft 456 kts
2026-04-29 23:43 14.13049 36.25777 37873 ft 457 kts
2026-04-29 23:43 14.19396 36.26170 37875 ft 457 kts
2026-04-29 23:44 14.25748 36.26563 37872 ft 457 kts
2026-04-29 23:44 14.32099 36.26956 37874 ft 458 kts
2026-04-29 23:45 14.37387 36.27284 37874 ft 458 kts
2026-04-29 23:45 14.43754 36.27679 37871 ft 458 kts
2026-04-29 23:46 14.51155 36.28138 37867 ft 458 kts
2026-04-29 23:46 14.56486 36.28469 37870 ft 458 kts
2026-04-29 23:47 14.62856 36.28865 37870 ft 459 kts
2026-04-29 23:47 14.69227 36.29261 37871 ft 459 kts
2026-04-29 23:48 14.75598 36.29657 37872 ft 459 kts
2026-04-29 23:48 14.81970 36.30053 37870 ft 459 kts
2026-04-29 23:49 14.88295 36.30447 37869 ft 459 kts
2026-04-29 23:49 14.94667 36.30844 37868 ft 459 kts
2026-04-29 23:50 15.01039 36.31241 37872 ft 459 kts
2026-04-29 23:51 15.10603 36.31837 37868 ft 459 kts
2026-04-29 23:51 15.16979 36.32235 37867 ft 459 kts
2026-04-29 23:52 15.23363 36.32634 37866 ft 460 kts
2026-04-29 23:52 15.29747 36.33033 37871 ft 460 kts
2026-04-29 23:53 15.36139 36.33432 37873 ft 460 kts
2026-04-29 23:53 15.42503 36.34121 37872 ft 460 kts 12°
2026-04-29 23:54 15.48738 36.35494 37876 ft 462 kts 11°
2026-04-29 23:54 15.55029 36.36887 37876 ft 462 kts 11°
2026-04-29 23:55 15.61330 36.38285 37879 ft 463 kts 11°
2026-04-29 23:55 15.67626 36.39685 37876 ft 463 kts 11°
2026-04-29 23:56 15.73928 36.41086 37878 ft 463 kts 11°
2026-04-29 23:56 15.80225 36.42486 37877 ft 463 kts 11°
2026-04-29 23:57 15.86530 36.43890 37879 ft 463 kts 11°
2026-04-29 23:57 15.92840 36.45296 37882 ft 463 kts 11°
2026-04-29 23:58 15.99148 36.46702 37882 ft 464 kts 11°
2026-04-29 23:58 16.05453 36.48108 37882 ft 464 kts 11°
2026-04-29 23:59 16.11763 36.49516 37881 ft 464 kts 10°
2026-04-29 23:59 16.18073 36.50926 37881 ft 464 kts 10°
2026-04-30 00:00 16.24391 36.52337 37881 ft 464 kts 10°
2026-04-30 00:00 16.30707 36.53750 37885 ft 465 kts 10°
2026-04-30 00:01 16.37031 36.55165 37884 ft 465 kts 10°
2026-04-30 00:01 16.43358 36.56582 37885 ft 465 kts 10°
2026-04-30 00:02 16.49692 36.58001 37881 ft 466 kts 10°
2026-04-30 00:02 16.56031 36.59422 37887 ft 466 kts 10°
2026-04-30 00:03 16.62326 36.60835 37890 ft 466 kts 10°
2026-04-30 00:03 16.68673 36.62260 37889 ft 466 kts 10°
2026-04-30 00:04 16.75016 36.63685 37892 ft 466 kts 10°
2026-04-30 00:04 16.81355 36.65110 37895 ft 466 kts 10°
2026-04-30 00:05 16.87707 36.66539 37894 ft 467 kts 10°
2026-04-30 00:05 16.94052 36.67968 37896 ft 467 kts 10°
2026-04-30 00:06 17.00400 36.69398 37894 ft 466 kts 10°
2026-04-30 00:06 17.06738 36.70827 37905 ft 466 kts 10°
2026-04-30 00:07 17.13087 36.72259 37901 ft 467 kts 10°
2026-04-30 00:07 17.19433 36.73692 37902 ft 467 kts 10°
2026-04-30 00:08 17.25785 36.75127 37904 ft 467 kts 10°
2026-04-30 00:08 17.32134 36.76562 37907 ft 467 kts 10°
2026-04-30 00:09 17.38486 36.77999 37910 ft 467 kts 10°
2026-04-30 00:09 17.44839 36.79438 37914 ft 467 kts
2026-04-30 00:10 17.51193 36.80877 37912 ft 467 kts
2026-04-30 00:10 17.57505 36.82309 37916 ft 467 kts 10°
2026-04-30 00:11 17.63894 36.83758 37917 ft 467 kts 10°
2026-04-30 00:11 17.70249 36.85201 37921 ft 467 kts
2026-04-30 00:12 17.76561 36.86635 37927 ft 467 kts 10°
2026-04-30 00:12 17.82917 36.88081 37930 ft 467 kts 10°
2026-04-30 00:13 17.89274 36.89527 37938 ft 467 kts
2026-04-30 00:13 17.95634 36.90975 37939 ft 467 kts
2026-04-30 00:14 18.01987 36.92423 37943 ft 468 kts
2026-04-30 00:14 18.08355 36.93875 37947 ft 468 kts
2026-04-30 00:15 18.14721 36.95328 37944 ft 468 kts
2026-04-30 00:15 18.21084 36.96781 37952 ft 468 kts
2026-04-30 00:16 18.27457 36.98238 37955 ft 468 kts
2026-04-30 00:16 18.33826 36.99694 37958 ft 469 kts
2026-04-30 00:17 18.40202 37.01154 37963 ft 469 kts
2026-04-30 00:17 18.46534 37.02605 37965 ft 469 kts
2026-04-30 00:18 18.52910 37.04066 37960 ft 469 kts
2026-04-30 00:18 18.59295 37.05531 37962 ft 470 kts
2026-04-30 00:19 18.65680 37.06997 37959 ft 470 kts
2026-04-30 00:19 18.72072 37.08466 37956 ft 470 kts
2026-04-30 00:20 18.78462 37.09936 37955 ft 470 kts
2026-04-30 00:20 18.84847 37.11405 37955 ft 470 kts
2026-04-30 00:21 18.91233 37.12876 37946 ft 470 kts
2026-04-30 00:21 18.97631 37.14350 37947 ft 470 kts
2026-04-30 00:22 19.04016 37.15823 37942 ft 470 kts
2026-04-30 00:22 19.10410 37.17299 37935 ft 470 kts
2026-04-30 00:23 19.16791 37.18773 37934 ft 470 kts
2026-04-30 00:23 19.23179 37.20250 37933 ft 470 kts
2026-04-30 00:24 19.29565 37.21727 37931 ft 470 kts
2026-04-30 00:24 19.35918 37.23122 37917 ft 466 kts
2026-04-30 00:24 19.39108 37.23068 37924 ft 455 kts 347°
2026-04-30 00:25 19.42163 37.22176 37909 ft 446 kts 331°
2026-04-30 00:25 19.47560 37.18999 37909 ft 444 kts 325°
2026-04-30 00:26 19.52782 37.15582 37931 ft 443 kts 323°
2026-04-30 00:26 19.57985 37.12082 37935 ft 443 kts 323°
2026-04-30 00:27 19.63172 37.08570 37935 ft 442 kts 323°
2026-04-30 00:27 19.68355 37.05055 37940 ft 442 kts 323°
2026-04-30 00:28 19.73563 37.01522 37941 ft 441 kts 323°
2026-04-30 00:28 19.78695 36.98036 37940 ft 441 kts 323°
2026-04-30 00:29 19.83852 36.94531 37947 ft 440 kts 323°
2026-04-30 00:29 19.89005 36.91025 37952 ft 440 kts 323°
2026-04-30 00:30 19.94152 36.87521 37956 ft 439 kts 323°
2026-04-30 00:30 19.99295 36.84018 37963 ft 439 kts 323°
2026-04-30 00:31 20.04433 36.80514 37962 ft 438 kts 323°
2026-04-30 00:31 20.09566 36.77012 37975 ft 438 kts 323°
2026-04-30 00:32 20.14694 36.73510 37970 ft 438 kts 322°
2026-04-30 00:32 20.19822 36.70006 37973 ft 437 kts 322°
2026-04-30 00:33 20.24939 36.66506 37969 ft 437 kts 322°
2026-04-30 00:33 20.30056 36.63004 37965 ft 437 kts 322°
2026-04-30 00:34 20.35162 36.59505 37972 ft 436 kts 322°
2026-04-30 00:34 20.40258 36.56011 37976 ft 436 kts 322°
2026-04-30 00:35 20.45360 36.52510 37978 ft 435 kts 322°
2026-04-30 00:35 20.50418 36.49037 37978 ft 435 kts 322°
2026-04-30 00:36 20.54683 36.46107 37976 ft 435 kts 322°
2026-04-30 00:36 20.59761 36.42614 37977 ft 434 kts 322°
2026-04-30 00:37 20.64837 36.39121 37979 ft 434 kts 322°
2026-04-30 00:37 20.69904 36.35631 37977 ft 433 kts 322°
2026-04-30 00:38 20.74925 36.32168 37974 ft 432 kts 322°
2026-04-30 00:38 20.79972 36.28685 37973 ft 431 kts 322°
2026-04-30 00:39 20.85006 36.25208 37976 ft 431 kts 322°
2026-04-30 00:39 20.90035 36.21733 37972 ft 430 kts 322°
2026-04-30 00:40 20.95056 36.18259 37971 ft 429 kts 322°
2026-04-30 00:40 21.00065 36.14791 37975 ft 428 kts 321°
2026-04-30 00:41 21.05061 36.11329 37967 ft 427 kts 321°
2026-04-30 00:41 21.10055 36.07866 37970 ft 427 kts 321°
2026-04-30 00:42 21.15032 36.04412 37964 ft 426 kts 321°
2026-04-30 00:42 21.20009 36.00955 37961 ft 426 kts 321°
2026-04-30 00:43 21.24980 35.97499 37967 ft 426 kts 321°
2026-04-30 00:43 21.29950 35.94041 37971 ft 426 kts 321°
2026-04-30 00:44 21.34910 35.90587 37962 ft 425 kts 321°
2026-04-30 00:44 21.39874 35.87129 37965 ft 425 kts 321°
2026-04-30 00:45 21.44827 35.83674 37968 ft 425 kts 321°
2026-04-30 00:45 21.49747 35.80240 37969 ft 424 kts 321°
2026-04-30 00:46 21.54694 35.76784 37969 ft 424 kts 321°
2026-04-30 00:46 21.59636 35.73329 37973 ft 424 kts 321°
2026-04-30 00:47 21.64577 35.69871 37976 ft 424 kts 321°
2026-04-30 00:47 21.69518 35.66411 37977 ft 423 kts 321°
2026-04-30 00:48 21.74452 35.62953 37975 ft 423 kts 321°
2026-04-30 00:48 21.79380 35.59497 37983 ft 423 kts 321°
2026-04-30 00:49 21.84290 35.56052 36015 ft 410 kts 320°
2026-04-30 00:49 21.86682 35.54468 27645 ft 468 kts 324°
2026-04-30 00:49 21.89690 35.52444 26715 ft 483 kts 324°
2026-04-30 00:49 21.92381 35.50687 28225 ft 433 kts 324°
2026-04-30 00:50 21.94966 35.49075 28971 ft 429 kts 324°
2026-04-30 00:50 21.97536 35.47429 29187 ft 428 kts 318°
2026-04-30 00:50 21.99846 35.45456 29815 ft 421 kts 318°
2026-04-30 00:50 22.02219 35.43636 30457 ft 415 kts 319°
2026-04-30 00:51 22.04589 35.41906 31086 ft 408 kts 320°
2026-04-30 00:51 22.06939 35.40229 31629 ft 403 kts 320°
2026-04-30 00:51 22.09285 35.38574 31940 ft 405 kts 320°
2026-04-30 00:51 22.11661 35.36912 32190 ft 408 kts 320°
2026-04-30 00:52 22.14047 35.35248 32483 ft 409 kts 320°
2026-04-30 00:52 22.16445 35.33578 32752 ft 411 kts 320°
2026-04-30 00:52 22.18855 35.31898 32999 ft 413 kts 320°
2026-04-30 00:52 22.21268 35.30217 33312 ft 414 kts 319°
2026-04-30 00:53 22.23686 35.28532 33627 ft 414 kts 319°
2026-04-30 00:53 22.26113 35.26839 33928 ft 415 kts 319°
2026-04-30 00:53 22.28542 35.25145 34174 ft 416 kts 319°
2026-04-30 00:53 22.30974 35.23448 34407 ft 417 kts 319°
2026-04-30 00:54 22.33416 35.21744 34626 ft 418 kts 319°
2026-04-30 00:54 22.35865 35.20033 34849 ft 419 kts 319°
2026-04-30 00:54 22.38311 35.18323 35061 ft 421 kts 319°
2026-04-30 00:54 22.40774 35.16601 35278 ft 421 kts 319°
2026-04-30 00:55 22.43238 35.14878 35538 ft 421 kts 319°
2026-04-30 00:55 22.45694 35.13160 35786 ft 421 kts 319°
2026-04-30 00:55 22.50615 35.09714 36266 ft 421 kts 319°
2026-04-30 00:56 22.53076 35.07990 36502 ft 421 kts 319°
2026-04-30 00:56 22.55537 35.06265 36726 ft 421 kts 319°
2026-04-30 00:56 22.58004 35.04536 36939 ft 422 kts 319°
2026-04-30 00:56 22.60464 35.02809 37139 ft 422 kts 319°
2026-04-30 00:57 22.62928 35.01080 37351 ft 422 kts 319°
2026-04-30 00:57 22.65391 34.99352 37519 ft 423 kts 319°
2026-04-30 00:57 22.67852 34.97623 37770 ft 421 kts 319°
2026-04-30 00:57 22.70311 34.95894 37943 ft 421 kts 319°
2026-04-30 00:58 22.75220 34.92442 37984 ft 420 kts 319°
2026-04-30 00:58 22.80126 34.88989 37991 ft 420 kts 319°
2026-04-30 00:59 22.85023 34.85539 37987 ft 420 kts 319°
2026-04-30 00:59 22.89918 34.82089 37986 ft 420 kts 319°
2026-04-30 01:00 22.94775 34.78661 37982 ft 419 kts 319°
2026-04-30 01:00 22.99670 34.75204 37978 ft 419 kts 319°
2026-04-30 01:01 23.04555 34.71750 37977 ft 419 kts 319°
2026-04-30 01:01 23.09438 34.68296 37981 ft 419 kts 319°
2026-04-30 01:02 23.14318 34.64841 37977 ft 418 kts 319°
2026-04-30 01:02 23.19194 34.61385 37981 ft 418 kts 318°
2026-04-30 01:03 23.24063 34.57931 37992 ft 417 kts 318°
2026-04-30 01:03 23.28915 34.54486 37981 ft 416 kts 318°
2026-04-30 01:04 23.33763 34.51041 37976 ft 416 kts 318°
2026-04-30 01:04 23.38605 34.47597 37979 ft 415 kts 318°
2026-04-30 01:05 23.43437 34.44157 37982 ft 415 kts 317°
2026-04-30 01:05 23.48257 34.40722 37980 ft 414 kts 318°
2026-04-30 01:06 23.53077 34.37286 37978 ft 413 kts 318°
2026-04-30 01:06 23.57880 34.33857 37979 ft 413 kts 318°
2026-04-30 01:07 23.62681 34.30427 37974 ft 412 kts 318°
2026-04-30 01:07 23.67448 34.27019 37975 ft 412 kts 318°
2026-04-30 01:08 23.72270 34.23569 37978 ft 412 kts 317°
2026-04-30 01:08 23.77024 34.20164 37975 ft 411 kts 317°
2026-04-30 01:09 23.81803 34.16745 37977 ft 411 kts 318°
2026-04-30 01:09 23.86597 34.13335 37975 ft 411 kts 318°
2026-04-30 01:10 23.91382 34.09929 37975 ft 410 kts 318°
2026-04-30 01:10 23.96164 34.06522 37976 ft 410 kts 317°
2026-04-30 01:11 24.00937 34.03117 37977 ft 410 kts 317°
2026-04-30 01:11 24.05712 33.99709 37974 ft 409 kts 317°
2026-04-30 01:12 24.10482 33.96301 37978 ft 409 kts 317°
2026-04-30 01:12 24.15244 33.92896 37975 ft 409 kts 317°
2026-04-30 01:13 24.20001 33.89491 37976 ft 408 kts 317°
2026-04-30 01:13 24.24752 33.86087 37979 ft 408 kts 317°
2026-04-30 01:14 24.29497 33.82685 37964 ft 407 kts 317°
2026-04-30 01:14 24.34238 33.79283 37977 ft 407 kts 317°
2026-04-30 01:15 24.38977 33.75879 37971 ft 407 kts 317°
2026-04-30 01:15 24.43681 33.72497 37972 ft 406 kts 317°
2026-04-30 01:16 24.48437 33.69073 37977 ft 406 kts 317°
2026-04-30 01:16 24.53132 33.65692 37976 ft 406 kts 317°
2026-04-30 01:17 24.57850 33.62291 37973 ft 405 kts 317°
2026-04-30 01:17 24.62560 33.58891 37972 ft 405 kts 317°
2026-04-30 01:18 24.67266 33.55493 37977 ft 405 kts 317°
2026-04-30 01:18 24.71968 33.52093 37973 ft 404 kts 317°
2026-04-30 01:19 24.76662 33.48696 37974 ft 404 kts 317°
2026-04-30 01:19 24.81356 33.45297 37971 ft 403 kts 317°
2026-04-30 01:20 24.86037 33.41903 37974 ft 403 kts 317°
2026-04-30 01:20 24.90710 33.38513 37961 ft 403 kts 317°
2026-04-30 01:21 24.95388 33.35115 37965 ft 402 kts 317°
2026-04-30 01:21 25.00060 33.31718 37967 ft 402 kts 317°
2026-04-30 01:22 25.04726 33.28324 37969 ft 402 kts 317°
2026-04-30 01:22 25.09390 33.24927 37968 ft 402 kts 317°
2026-04-30 01:23 25.14050 33.21531 37966 ft 401 kts 317°
2026-04-30 01:23 25.17919 33.18709 37972 ft 401 kts 317°
2026-04-30 01:24 25.22577 33.15307 37975 ft 401 kts 316°
2026-04-30 01:24 25.27232 33.11906 37972 ft 401 kts 317°
2026-04-30 01:25 25.31882 33.08505 37970 ft 401 kts 317°
2026-04-30 01:25 25.36539 33.05096 37968 ft 401 kts 317°
2026-04-30 01:26 25.41186 33.01691 37968 ft 401 kts 317°
2026-04-30 01:26 25.45835 32.98283 37966 ft 401 kts 317°
2026-04-30 01:27 25.50480 32.94873 37964 ft 401 kts 317°
2026-04-30 01:27 25.55124 32.91460 37958 ft 401 kts 317°
2026-04-30 01:28 25.59776 32.88039 37954 ft 401 kts 317°
2026-04-30 01:28 25.64419 32.84621 37946 ft 401 kts 317°
2026-04-30 01:29 25.69065 32.81198 37943 ft 401 kts 317°
2026-04-30 01:29 25.73706 32.77762 37940 ft 399 kts 314°
2026-04-30 01:30 25.75661 32.75703 37946 ft 382 kts 302°
2026-04-30 01:30 25.77405 32.73453 37930 ft 385 kts 303°
2026-04-30 01:30 25.80881 32.68937 37944 ft 385 kts 303°
2026-04-30 01:31 25.84321 32.64379 37953 ft 385 kts 303°
2026-04-30 01:31 25.87743 32.59820 37967 ft 385 kts 302°
2026-04-30 01:32 25.91164 32.55256 37973 ft 385 kts 303°
2026-04-30 01:32 25.94587 32.50683 37977 ft 385 kts 303°
2026-04-30 01:33 25.98011 32.46104 37984 ft 385 kts 303°
2026-04-30 01:33 26.01412 32.41552 37983 ft 385 kts 303°
2026-04-30 01:34 26.04833 32.36969 37995 ft 385 kts 303°
2026-04-30 01:34 26.08255 32.32379 37993 ft 385 kts 303°
2026-04-30 01:35 26.11678 32.27784 38015 ft 386 kts 303°
2026-04-30 01:35 26.15096 32.23189 38003 ft 386 kts 303°
2026-04-30 01:36 26.18516 32.18588 38008 ft 386 kts 303°
2026-04-30 01:36 26.21938 32.13980 38007 ft 386 kts 303°
2026-04-30 01:37 26.25360 32.09368 38011 ft 386 kts 303°
2026-04-30 01:37 26.28780 32.04753 38014 ft 386 kts 303°
2026-04-30 01:38 26.32196 32.00138 38019 ft 386 kts 303°
2026-04-30 01:38 26.35614 31.95517 38019 ft 386 kts 303°
2026-04-30 01:39 26.39033 31.90889 38022 ft 386 kts 303°
2026-04-30 01:39 26.42443 31.86268 38021 ft 386 kts 303°
2026-04-30 01:40 26.45855 31.81640 38035 ft 386 kts 303°
2026-04-30 01:40 26.49266 31.77009 38033 ft 386 kts 303°
2026-04-30 01:41 26.52675 31.72376 38033 ft 386 kts 303°
2026-04-30 01:41 26.56083 31.67738 38038 ft 386 kts 303°
2026-04-30 01:42 26.59493 31.63095 38042 ft 386 kts 303°
2026-04-30 01:42 26.62897 31.58453 38045 ft 386 kts 303°
2026-04-30 01:43 26.66304 31.53804 38047 ft 387 kts 303°
2026-04-30 01:43 26.69708 31.49153 38053 ft 387 kts 303°
2026-04-30 01:44 26.73114 31.44494 38054 ft 387 kts 303°
2026-04-30 01:44 26.76516 31.39836 38056 ft 387 kts 303°
2026-04-30 01:45 26.79923 31.35168 38059 ft 387 kts 303°
2026-04-30 01:45 26.83304 31.30529 38071 ft 387 kts 303°
2026-04-30 01:46 26.86707 31.25855 38074 ft 387 kts 303°
2026-04-30 01:46 26.90130 31.21150 38064 ft 387 kts 303°
2026-04-30 01:47 26.93512 31.16497 38081 ft 387 kts 303°
2026-04-30 01:47 26.96914 31.11812 38078 ft 388 kts 303°
2026-04-30 01:48 27.00361 31.07159 38074 ft 391 kts 310°
2026-04-30 01:48 27.02575 31.05321 38071 ft 404 kts 325°
2026-04-30 01:48 27.05257 31.04216 38075 ft 421 kts 340°
2026-04-30 01:49 27.08240 31.03933 38075 ft 440 kts 354°
2026-04-30 01:49 27.11312 31.04218 38072 ft 445 kts 355°
2026-04-30 01:49 27.17487 31.04832 38081 ft 446 kts 356°
2026-04-30 01:50 27.23659 31.05503 38077 ft 446 kts 356°
2026-04-30 01:50 27.29823 31.06182 38079 ft 445 kts 356°
2026-04-30 01:51 27.35991 31.06864 38077 ft 445 kts 356°
2026-04-30 01:51 27.42160 31.07546 38069 ft 445 kts 356°
2026-04-30 01:52 27.48322 31.08228 38074 ft 445 kts 356°
2026-04-30 01:52 27.54483 31.08911 38069 ft 445 kts 356°
2026-04-30 01:53 27.60641 31.09594 38065 ft 445 kts 356°
2026-04-30 01:53 27.66802 31.10278 38067 ft 445 kts 356°
2026-04-30 01:54 27.72926 31.10959 38064 ft 445 kts 356°
2026-04-30 01:54 27.79080 31.11644 38065 ft 445 kts 357°
2026-04-30 01:55 27.85245 31.12331 38067 ft 445 kts 357°
2026-04-30 01:55 27.91409 31.13019 38061 ft 445 kts 357°
2026-04-30 01:56 27.94487 31.13363 37788 ft 442 kts 357°
2026-04-30 01:56 27.97537 31.13705 37212 ft 440 kts 357°
2026-04-30 01:56 28.00578 31.14045 36676 ft 438 kts 357°
2026-04-30 01:56 28.03592 31.14382 36204 ft 434 kts 358°
2026-04-30 01:57 28.06583 31.14716 35720 ft 430 kts 358°
2026-04-30 01:57 28.09563 31.15049 35167 ft 430 kts 358°
2026-04-30 01:57 28.12521 31.15379 34716 ft 426 kts 358°
2026-04-30 01:57 28.15502 31.15712 34275 ft 422 kts 358°
2026-04-30 01:58 28.18378 31.16033 33770 ft 420 kts 358°
2026-04-30 01:58 28.21269 31.16355 33242 ft 417 kts 358°
2026-04-30 01:58 28.24143 31.16677 32764 ft 413 kts 358°
2026-04-30 01:58 28.26985 31.16995 32308 ft 408 kts 358°
2026-04-30 01:59 28.32584 31.17622 31401 ft 401 kts 358°
2026-04-30 01:59 28.35351 31.17932 30948 ft 398 kts 358°
2026-04-30 01:59 28.38094 31.18240 30497 ft 394 kts 358°
2026-04-30 02:00 28.40813 31.18545 30049 ft 391 kts 358°
2026-04-30 02:00 28.43511 31.18848 29541 ft 388 kts 358°
2026-04-30 02:00 28.46181 31.19148 29071 ft 384 kts 358°
2026-04-30 02:00 28.48825 31.19445 28661 ft 379 kts 358°
2026-04-30 02:01 28.51437 31.19739 28227 ft 375 kts 358°
2026-04-30 02:01 28.54020 31.20030 27806 ft 371 kts 358°
2026-04-30 02:01 28.56571 31.20317 27394 ft 367 kts 357°
2026-04-30 02:01 28.59097 31.20601 26982 ft 363 kts 357°
2026-04-30 02:02 28.61602 31.20883 26574 ft 360 kts 357°
2026-04-30 02:02 28.64083 31.21163 26162 ft 357 kts 357°
2026-04-30 02:02 28.66541 31.21440 25763 ft 353 kts 357°
2026-04-30 02:02 28.68975 31.21715 25373 ft 350 kts 357°
2026-04-30 02:03 28.71396 31.22004 24901 ft 350 kts 358°
2026-04-30 02:03 28.73815 31.22297 24512 ft 348 kts 357°
2026-04-30 02:03 28.76212 31.22586 24131 ft 345 kts 357°
2026-04-30 02:03 28.78595 31.22873 23752 ft 343 kts 357°
2026-04-30 02:04 28.80964 31.23160 23305 ft 341 kts 358°
2026-04-30 02:04 28.83314 31.23444 22877 ft 338 kts 358°
2026-04-30 02:04 28.85647 31.23725 22481 ft 335 kts 358°
2026-04-30 02:04 28.87953 31.24004 22101 ft 331 kts 358°
2026-04-30 02:05 28.90231 31.24280 21724 ft 328 kts 358°
2026-04-30 02:05 28.92487 31.24552 21356 ft 324 kts 358°
2026-04-30 02:05 28.94717 31.24822 20988 ft 321 kts 359°
2026-04-30 02:05 28.96930 31.25090 20630 ft 318 kts 359°
2026-04-30 02:06 28.99122 31.25355 20261 ft 315 kts 359°
2026-04-30 02:06 29.01291 31.25617 19907 ft 313 kts 359°
2026-04-30 02:06 29.03421 31.25875 19555 ft 311 kts 359°
2026-04-30 02:06 29.05607 31.26140 19187 ft 313 kts 360°
2026-04-30 02:07 29.07746 31.26400 18833 ft 314 kts
2026-04-30 02:07 29.09952 31.26667 18459 ft 314 kts
2026-04-30 02:07 29.12099 31.26928 18074 ft 315 kts
2026-04-30 02:07 29.14273 31.27192 17677 ft 313 kts
2026-04-30 02:08 29.16433 31.27454 17302 ft 310 kts
2026-04-30 02:08 29.18567 31.27713 16941 ft 307 kts
2026-04-30 02:08 29.20683 31.27970 16582 ft 304 kts
2026-04-30 02:08 29.22774 31.28224 16224 ft 301 kts
2026-04-30 02:09 29.24849 31.28477 15873 ft 298 kts
2026-04-30 02:09 29.26900 31.28727 15527 ft 295 kts
2026-04-30 02:09 29.28938 31.28975 15179 ft 293 kts
2026-04-30 02:09 29.30959 31.29221 14833 ft 293 kts
2026-04-30 02:10 29.33002 31.29469 14477 ft 296 kts
2026-04-30 02:10 29.34358 31.29635 14242 ft 297 kts
2026-04-30 02:10 29.37110 31.29971 13762 ft 297 kts
2026-04-30 02:10 29.38468 31.30136 13497 ft 296 kts
2026-04-30 02:11 29.40503 31.30288 13085 ft 291 kts 353°
2026-04-30 02:11 29.42512 31.30103 12717 ft 288 kts 352°
2026-04-30 02:11 29.44494 31.29944 12390 ft 284 kts 353°
2026-04-30 02:11 29.46456 31.29802 12055 ft 281 kts 353°
2026-04-30 02:12 29.48400 31.29672 11715 ft 278 kts 353°
2026-04-30 02:12 29.50323 31.29550 11381 ft 276 kts 353°
2026-04-30 02:12 29.52234 31.29431 11045 ft 274 kts 354°
2026-04-30 02:12 29.54115 31.29317 10712 ft 273 kts 354°
2026-04-30 02:13 29.56006 31.29203 10375 ft 271 kts 354°
2026-04-30 02:13 29.57874 31.29091 10138 ft 266 kts 354°
2026-04-30 02:13 29.59709 31.28980 9857 ft 266 kts 354°
2026-04-30 02:13 29.61579 31.28867 9477 ft 270 kts 354°
2026-04-30 02:14 29.63452 31.28755 9120 ft 270 kts 354°
2026-04-30 02:14 29.65331 31.28642 8779 ft 269 kts 354°
2026-04-30 02:14 29.67192 31.28530 8445 ft 266 kts 354°
2026-04-30 02:14 29.69036 31.28420 8108 ft 264 kts 354°
2026-04-30 02:15 29.70862 31.28310 7795 ft 262 kts 354°
2026-04-30 02:15 29.72650 31.28202 7474 ft 260 kts 354°
2026-04-30 02:15 29.74470 31.28093 7149 ft 258 kts 354°
2026-04-30 02:15 29.76231 31.27987 6837 ft 256 kts 354°
2026-04-30 02:16 29.78005 31.27880 6517 ft 255 kts 354°
2026-04-30 02:16 29.79196 31.27809 6298 ft 254 kts 354°
2026-04-30 02:16 29.79955 31.27763 6152 ft 253 kts 354°
2026-04-30 02:17 29.81709 31.27657 5816 ft 252 kts 354°
2026-04-30 02:17 29.83180 31.27569 5594 ft 243 kts 355°
2026-04-30 02:17 29.84840 31.27470 5286 ft 234 kts 355°
2026-04-30 02:17 29.86428 31.27374 5118 ft 222 kts 354°
2026-04-30 02:18 29.87918 31.27284 4985 ft 207 kts 355°
2026-04-30 02:18 29.89294 31.27201 4858 ft 187 kts 354°
2026-04-30 02:18 29.90521 31.27126 4732 ft 167 kts 354°
2026-04-30 02:18 29.91616 31.27061 4601 ft 148 kts 354°
2026-04-30 02:19 29.92620 31.27000 4500 ft 145 kts 354°
2026-04-30 02:19 29.93661 31.26936 4449 ft 154 kts 354°
2026-04-30 02:19 29.94751 31.26870 4353 ft 159 kts 355°
2026-04-30 02:19 29.95857 31.26803 4238 ft 159 kts 355°
2026-04-30 02:20 29.96956 31.26736 4120 ft 159 kts 355°
2026-04-30 02:20 29.98048 31.26875 3918 ft 161 kts 24°
2026-04-30 02:20 29.98901 31.27700 3708 ft 162 kts 45°
2026-04-30 02:20 29.99655 31.28633 3513 ft 155 kts 44°
2026-04-30 02:21 30.00380 31.29532 3286 ft 150 kts 46°
2026-04-30 02:21 30.01069 31.30429 3063 ft 149 kts 47°
2026-04-30 02:21 30.01753 31.31322 2856 ft 148 kts 47°
2026-04-30 02:21 30.02427 31.32209 2691 ft 147 kts 47°
2026-04-30 02:22 30.03096 31.33099 2481 ft 146 kts 47°
2026-04-30 02:22 30.03760 31.33982 2275 ft 145 kts 48°
2026-04-30 02:22 30.04419 31.34857 2078 ft 144 kts 48°
2026-04-30 02:22 30.05077 31.35732 1861 ft 144 kts 49°
2026-04-30 02:23 30.05731 31.36599 1626 ft 143 kts 48°
2026-04-30 02:23 30.06386 31.37462 1370 ft 142 kts 48°
2026-04-30 02:23 30.07028 31.38329 1153 ft 142 kts 49°
2026-04-30 02:23 30.07664 31.39194 1058 ft 142 kts 48°
2026-04-30 02:24 30.08318 31.40040 846 ft 140 kts 47°
2026-04-30 02:24 30.08951 31.40889 655 ft 139 kts 49°
2026-04-30 02:24 30.09582 31.41729 473 ft 139 kts 49°
2026-04-30 02:24 30.10269 31.42646 417 ft 156 kts 49°
2026-04-30 02:25 30.10939 31.43535 378 ft 138 kts 49°
2026-04-30 02:25 30.11431 31.44183 373 ft 71 kts 49°
2026-04-30 02:25 30.11671 31.44494 374 ft 47 kts 47°
2026-04-30 02:25 30.11864 31.44754 373 ft 31 kts 50°
2026-04-30 02:26 30.11970 31.44788 376 ft 13 kts 329°
2026-04-30 02:26 30.12006 31.44754 378 ft 0 kts 315°